Powrót do katalogu

DELTA 1 DEB

AktywnyPO
NORAD 19311·DEBRIS·🇺🇸 United States

Wystrzelony Jan 22, 1975 z Vandenberg Space Force Base

Loading…

Następne Przeloty (najbliższe 24 godziny)

TLE

ŚwieżeSource: Space-Track

Epoka: Sep 13, 2026, 07:22 UTC

1 19311U 75004HP  26256.30742367  .00001138  00000-0  37415-3 0  9990
2 19311  97.6864 200.0452 0134331 359.8236   0.2882 14.34885138    17

Śledź DELTA 1 DEB w czasie rzeczywistym z AllMySat

Download on the App Store